Weather in Makhnivka

Ukraine / Vinnytsia Region     49°43′18″N   28°40′37″E
temp.,
°C
wind,
m/s
gust,
m/s
humid.,
%
clouds,
%
prec.,
mm/h
press.,
hPa
HPBL,
m
19 april, mon
mon1900:00+7e2487100 0.0 1018164
03:00+6e349187 0.0 1018163
06:00+3ne339492 0.0 101752
09:00+7e4577100 0.0 1017408
12:00+11e446092 0.0 10161365
15:00+11e3455100 0.1 10161537
18:00+9ene3569100 0.0 1015342
21:00+8ene3572100 0.1 1015105
20 april, tue
tue2000:00+7ne2374100 0.1 101477
03:00+5nne358765 0.1 101397
06:00+4nne339286 0.0 101353
09:00+7nne3580100 0.1 1012395
12:00+11n556164 0.4 10111296
15:00+11n665899 0.9 10101535
18:00+8n676858 0.0 1010732
21:00+5nnw35885 0.0 1011118
21 april, wed
wed2100:00+4nw34945 0.0 101164
03:00+3wnw34925 0.0 101258
06:00+3w359348 0.0 101279
09:00+8w3574100 0.0 1013391
12:00+11w466098 0.6 10121232
15:00+13wsw5653100 1.3 10121613
18:00+13sw4659100 0.3 1012754
21:00+9wsw3379100 1.3 101348
22 april, thu
thu2200:00+7sw348317 0.0 101465
03:00+6sw47865 0.0 1015110
06:00+5sw47886 0.0 101595
09:00+10sw4671100 0.0 1016391
12:00+13wsw246051 0.1 10161030
15:00+15ssw4754100 0.4 10151645
18:00+14ssw3662100 0.6 1015941
21:00+10s477749 0.8 1016103
23 april, fri
fri2300:00+8s4128620 0.0 1015235
03:00+7ssw49895 0.0 1014165
06:00+6ssw48899 0.0 1014130
09:00+10w697654 0.0 1014603
12:00+5nnw5789100 0.4 1017527
15:00+6wnw3781100 5.7 1018746
18:00+9wnw4669100 0.1 1016774
21:00+6wnw41075100 0.1 1018292